Wind_Speed
8 10 17 18 17 5 6 4 6 2 5 8 16 21 16 12 15 14 14 15 16 17 18 19 20 18 18 22 26 29 30 32 32 31 29 27 25 24 20 18 20 21 25 26
6 17 11 10 9 9 8 10 10 6 8 7 14 26 18 12 15 20 20 19 18 18 17 16 18 15 19 24 28 30 32 33 31 30 27 19 24 24 23 20 19 20 22 27
6 2 13 11 8 9 8 12 8 10 5 7 12 25 22 14 22 22 20 20 21 21 20 18 13 18 18 25 32 35 36 34 31 30 27 22 19 16 21 21 20 21 20 25
6 2 6 7 10 11 12 8 7 5 3 5 2 9 9 3 7 12 16 16 17 18 19 18 16 13 22 28 25 29 32 33 34 35 31 27 21 15 21 18 19 17 21 20
5 7 8 6 4 9 4 5 6 5 6 3 6 7 2 12 12 14 14 16 17 19 19 20 20 23 22 22 27 29 31 30 32 36 31 27 19 16 13 15 15 15 17 19
3 2 4 5 4 3 8 6 2 2 3 5 11 8 3 3 5 23 18 17 19 16 15 18 21 17 17 21 26 30 32 31 31 33 33 31 22 18 14 13 14 13 15 17
2 3 3 5 7 2 3 5 2 2 3 4 1 7 11 16 10 10 14 17 19 16 15 13 14 13 18 24 29 31 34 32 32 31 32 28 20 18 15 14 14 11 14 17
9 5 8 5 3 6 7 4 3 4 3 1 2 6 3 5 4 7 14 16 17 20 17 15 11 13 19 25 29 30 32 31 31 31 30 24 20 17 14 14 13 12 14 14
6 2 3 3 3 3 3 3 1 2 3 1 4 5 5 4 8 14 17 20 22 23 20 18 13 13 18 25 29 29 29 28 29 29 26 22 21 18 15 14 12 12 13 12
6 6 2 3 5 9 2 6 3 1 2 3 4 5 5 8 10 12 16 19 22 23 22 13 11 9 17 19 21 23 25 25 25 25 26 21 20 18 16 14 15 14 15 12
4 3 2 5 3 8 3 3 3 1 2 1 3 1 7 11 9 10 11 12 16 20 19 11 9 7 12 15 19 19 22 22 24 24 23 20 19 19 18 16 16 16 16 16
1 4 4 2 3 4 3 4 3 2 4 2 3 5 3 9 10 13 11 13 16 18 18 10 7 7 10 13 16 18 21 21 22 21 19 18 18 17 18 17 17 18 18 19
3 2 6 7 5 2 3 3 4 3 1 4 2 3 4 15 14 14 11 11 15 18 18 15 13 7 7 12 13 16 17 20 22 21 18 15 15 16 16 17 19 19 18 19
4 3 3 4 5 3 2 2 2 2 2 4 8 15 14 15 19 16 11 10 15 15 15 15 16 15 15 10 14 16 17 19 20 20 17 15 14 14 16 15 17 19 19 19
4 5 5 5 3 3 3 3 5 7 10 7 10 14 19 11 15 6 5 10 15 11 13 16 16 15 15 21 23 21 11 12 13 15 13 12 11 11 12 14 16 18 18 18
3 3 1 1 3 4 4 7 10 9 10 13 17 19 15 8 11 1 7 9 15 13 17 17 16 17 16 20 21 25 27 18 8 8 7 7 11 12 12 13 13 14 17 17
3 3 1 2 3 4 5 4 7 7 6 5 10 13 12 11 12 12 13 12 12 10 12 15 15 15 20 21 23 26 28 28 28 23 17 16 12 7 1 12 14 17 17 16
2 3 1 1 2 2 2 8 2 8 8 11 12 9 10 12 13 16 16 13 12 12 13 12 12 19 23 22 23 26 30 23 26 26 24 18 13 12 10 9 9 4 3 15
1 2 3 1 1 5 2 6 5 5 8 13 10 8 10 6 6 11 14 13 13 13 11 15 18 19 21 27 30 30 29 18 29 25 17 16 17 16 14 13 11 8 6 5
5 4 2 1 1 2 4 10 11 5 3 17 17 6 9 9 3 3 10 10 13 17 16 18 18 22 25 25 22 22 20 24 25 18 16 17 17 16 15 14 14 12 11 12
3 3 1 2 2 4 7 14 9 2 4 11 14 10 8 5 6 5 6 10 14 15 19 17 21 23 23 22 21 22 21 22 17 14 13 16 17 17 16 14 15 15 16 19
3 2 1 1 2 2 12 5 5 1 7 9 11 12 14 11 11 11 12 12 13 16 19 19 18 20 21 22 19 18 19 14 14 14 17 19 20 20 18 17 17 17 16 19
3 4 2 3 4 6 11 11 10 10 8 9 8 9 10 10 9 8 10 12 13 16 16 17 16 17 20 20 19 16 15 11 12 15 18 19 20 21 22 22 20 19 18 17
2 8 2 2 7 11 11 11 11 11 12 11 12 11 10 10 9 9 9 9 11 15 17 16 16 18 19 19 18 17 14 10 11 13 14 17 22 21 21 25 25 22 19 19
2 6 5 1 5 2 12 11 10 11 10 11 12 12 11 9 10 9 9 9 13 13 14 16 17 16 17 17 18 17 16 11 11 12 13 14 15 19 25 32 26 27 30 21
3 3 2 3 6 5 6 9 10 10 10 11 10 11 12 11 9 9 9 13 12 13 14 15 16 17 18 18 19 19 17 13 11 12 13 12 11 12 15 18 25 31 29 27
Wind_Direction
185 196 206 192 204 187 182 217 249 249 282 289 274 276 274 263 273 267 262 264 266 270 270 268 264 258 231 215 201 198 192 195 194 193 193 197 199 207 215 216 219 214 209 202
153 224 201 183 183 201 221 247 257 269 260 273 285 276 279 261 252 258 260 256 254 255 258 259 246 249 228 215 206 195 193 189 189 189 190 190 197 209 215 213 214 220 212 211
198 140 177 180 182 197 224 234 242 256 296 282 298 285 267 249 242 252 256 253 250 247 248 247 243 235 226 213 205 195 190 185 183 184 183 188 189 205 211 217 214 212 203 213
227 176 155 175 204 187 227 209 216 235 226 263 323 293 293 293 276 259 264 259 254 250 243 249 244 237 218 218 205 196 186 181 181 183 181 186 183 190 210 210 213 210 217 217
194 169 147 162 188 169 202 153 167 199 229 280 228 258 192 323 315 350 2 328 305 278 252 250 246 240 229 203 195 190 180 179 179 183 183 188 189 189 196 202 207 212 217 215
122 90 156 167 109 133 140 128 122 169 198 245 216 224 331 333 357 334 339 340 339 318 289 258 252 243 211 191 188 184 176 175 181 184 186 190 190 184 182 192 199 206 214 222
125 145 125 135 104 58 151 145 161 192 202 253 212 213 271 305 335 356 347 340 335 335 330 324 259 210 197 185 185 181 173 173 182 184 187 189 194 185 187 186 195 196 213 220
167 184 179 170 171 171 175 186 194 218 200 246 156 235 267 79 34 1 356 349 344 345 333 317 300 221 203 187 186 181 176 173 180 185 188 192 190 187 187 190 196 189 203 211
147 104 88 123 133 165 165 163 43 115 225 233 244 259 203 24 359 357 356 359 356 343 333 313 302 231 206 189 190 181 173 176 177 179 183 188 186 185 184 185 191 192 202 203
180 114 56 134 110 38 136 129 135 130 184 240 245 262 279 339 332 340 355 1 353 344 339 330 298 226 194 191 184 178 170 176 172 174 181 186 184 186 185 186 189 196 205 203
134 106 108 140 191 168 148 143 91 138 237 305 315 289 3 322 326 317 340 3 0 351 339 358 25 99 153 168 173 159 166 168 163 167 177 180 179 183 190 193 192 192 204 207
61 107 109 99 300 160 130 129 141 170 136 258 310 278 20 349 331 307 321 359 23 4 348 10 45 94 136 149 145 149 159 161 158 162 165 179 176 178 187 194 198 196 199 207
178 90 126 136 113 75 112 129 122 142 186 232 224 262 2 347 338 334 342 14 33 12 359 11 29 60 106 120 131 142 147 152 149 157 164 171 180 183 191 198 199 198 195 200
72 60 69 109 109 135 169 169 201 168 231 294 246 285 303 327 323 323 359 38 48 16 10 18 32 27 30 68 124 130 140 144 153 157 161 169 182 193 205 205 206 205 203 200
69 71 73 93 128 174 226 246 273 268 252 254 286 286 292 311 327 332 12 53 52 24 16 32 31 29 25 44 47 52 73 141 152 158 165 172 189 208 211 212 213 215 213 212
22 109 104 81 33 77 276 281 290 271 265 252 268 277 294 298 320 159 79 57 51 28 22 30 36 33 26 32 44 47 43 54 130 142 145 179 211 217 224 223 220 221 225 224
43 119 83 93 23 322 290 148 354 331 310 273 305 308 309 333 57 41 67 53 54 32 39 25 25 33 24 34 45 51 47 49 55 53 54 61 72 96 189 236 234 235 236 235
105 91 60 56 325 58 103 307 65 359 357 346 313 346 40 76 66 52 41 46 35 34 30 33 24 29 29 34 46 57 55 46 52 40 37 40 36 52 55 69 71 106 261 247
109 97 92 74 25 301 37 45 1 354 340 3 347 104 95 153 108 42 25 29 30 33 27 27 29 28 30 29 36 45 51 39 51 42 14 30 39 40 42 47 45 39 37 40
67 66 80 100 50 285 61 333 326 295 275 0 349 97 77 73 47 53 16 23 29 27 32 31 30 33 34 31 42 49 50 45 44 36 22 28 39 42 40 38 42 51 67 72
57 51 98 144 233 282 349 323 310 224 357 10 22 11 37 62 54 82 56 45 30 34 33 34 37 40 30 27 37 40 41 44 48 47 49 48 48 48 43 44 50 52 68 79
41 28 72 132 240 300 359 18 33 26 40 38 46 56 71 71 68 57 45 38 32 28 28 30 40 39 32 31 35 37 37 34 48 51 51 49 52 52 52 52 51 56 61 66
59 19 332 354 359 28 49 65 38 53 62 26 54 55 73 80 64 53 62 46 30 28 30 31 37 40 36 33 31 31 20 37 47 51 53 51 54 55 52 53 52 52 55 61
77 20 27 341 46 31 39 53 51 49 55 46 39 49 57 68 64 57 43 45 38 28 32 29 37 36 29 27 29 27 24 39 60 65 63 60 57 59 58 57 54 55 53 58
358 342 337 341 26 118 45 44 55 52 56 63 53 45 48 56 54 58 54 46 37 29 30 35 37 34 30 26 26 23 25 37 61 74 75 76 72 70 69 62 57 61 61 66
18 11 360 48 347 81 47 47 53 57 51 51 57 58 47 52 62 67 59 50 42 37 35 38 35 32 26 25 25 22 23 32 50 61 65 71 79 80 81 80 72 65 69 69
Height
732 735 729 734 731 737 738 740 741 738 730 733 727 719 718 720 716 717 716 715 711 707 704 703 702 703 705 708 713 718 724 728 735 740 744 749 752 757 761 764 767 770 772 776
732 725 729 730 734 735 738 740 741 740 735 734 727 711 713 716 712 706 704 703 703 700 698 696 696 697 698 700 704 710 715 721 728 735 740 745 748 754 758 761 764 767 770 773
723 722 722 728 732 738 740 740 743 742 736 733 730 705 700 697 695 694 692 692 688 687 688 686 688 689 691 693 694 698 704 712 722 730 737 741 746 751 755 757 760 764 766 769
726 719 724 727 729 731 740 737 736 739 742 743 735 718 699 696 694 690 685 684 684 679 679 678 678 680 681 682 691 696 701 707 715 724 730 735 737 744 748 753 756 760 763 766
719 721 723 728 726 728 734 733 735 738 741 744 738 737 699 689 683 683 684 683 679 673 670 669 669 667 669 677 683 691 696 704 711 718 724 731 736 740 745 749 753 756 759 762
717 719 720 721 729 729 732 736 739 742 742 744 729 726 699 695 693 688 685 686 681 670 665 663 660 662 666 672 679 686 690 698 708 714 719 726 731 736 742 746 749 752 755 758
721 722 723 723 732 735 733 734 741 747 748 730 722 730 704 695 697 699 695 689 682 673 666 661 656 658 664 665 672 680 682 691 702 710 716 722 729 732 738 742 746 748 752 754
717 729 723 721 722 728 733 730 729 726 730 727 724 719 700 697 699 698 692 688 679 669 664 659 656 654 659 662 668 674 677 686 697 705 712 720 726 730 735 740 744 746 750 752
711 720 720 720 722 724 735 733 732 742 737 736 717 703 699 696 696 693 689 683 677 671 662 655 652 652 657 658 664 667 673 685 693 702 710 718 722 727 733 738 742 745 748 750
705 718 719 723 721 727 725 730 738 741 735 730 709 707 697 695 695 693 688 685 681 672 661 653 648 648 654 660 666 670 675 684 693 700 707 715 719 725 731 736 740 744 746 749
701 706 725 721 722 726 732 732 740 738 739 731 719 706 700 699 696 697 692 690 686 681 668 659 653 652 654 659 666 671 677 685 690 698 705 713 717 723 729 733 737 742 745 748
702 711 720 725 722 721 725 728 729 732 735 735 736 714 702 701 696 692 691 694 687 686 677 666 663 661 661 664 668 673 678 685 690 697 705 713 716 721 726 731 734 738 743 746
702 713 720 731 727 724 724 728 731 744 740 733 731 709 700 699 697 693 693 692 691 692 688 679 671 669 668 669 671 676 680 685 690 697 704 711 716 719 724 728 731 735 739 742
704 714 712 715 723 726 729 730 728 732 736 724 723 710 705 704 702 696 696 697 695 703 700 692 683 682 679 675 676 679 684 687 692 698 703 708 713 717 721 726 729 732 735 738
712 722 719 722 723 725 726 727 727 729 727 730 712 713 702 706 703 700 701 700 702 708 707 699 695 692 692 684 683 684 684 689 695 700 704 706 712 716 719 723 726 729 732 734
716 725 724 727 723 724 725 724 725 723 720 718 715 710 699 700 701 702 702 705 707 705 706 706 707 703 700 697 694 689 689 691 697 701 703 707 711 714 717 720 724 727 729 730
722 724 727 729 729 727 727 724 722 719 714 713 712 704 701 703 714 712 715 717 720 724 720 720 717 712 713 707 703 699 697 699 701 706 708 709 711 713 715 718 720 723 725 728
730 728 731 732 731 741 724 720 720 718 714 714 708 709 716 724 732 732 731 729 731 728 728 726 726 719 716 716 713 706 705 714 710 713 714 716 718 716 717 717 719 720 722 725
730 732 737 737 737 728 721 728 731 727 720 722 717 716 724 726 728 741 746 744 741 739 737 734 730 729 726 717 711 712 713 720 712 718 731 726 721 720 721 722 721 721 721 722
737 736 734 744 743 744 735 734 730 728 720 733 728 717 722 717 728 745 754 752 751 746 744 742 738 733 729 729 727 729 733 726 724 733 735 731 726 726 727 727 726 725 724 724
740 745 744 747 743 733 744 736 728 723 741 745 742 736 731 735 749 758 757 756 756 754 752 749 745 741 740 738 735 736 734 734 737 741 742 738 733 731 731 731 729 730 729 728
740 743 749 745 746 746 746 735 738 754 758 756 754 754 754 758 760 762 760 761 761 760 758 756 753 751 750 747 745 746 743 745 744 745 741 738 735 735 736 736 734 733 734 734
747 755 754 752 751 757 756 759 765 762 765 765 762 763 763 764 767 767 765 767 770 768 765 763 761 759 758 756 754 754 753 750 748 745 743 743 741 739 741 740 739 739 738 740
760 764 759 758 768 771 768 771 772 774 775 776 774 772 771 771 773 772 773 772 773 773 770 770 767 765 764 763 762 759 757 755 752 752 751 749 748 747 748 746 746 744 745 744
772 769 775 765 771 772 778 779 780 781 782 781 783 782 780 780 779 779 780 780 779 779 776 774 772 772 770 768 766 764 761 759 758 757 755 754 756 755 754 754 753 752 752 753
778 781 776 774 782 780 785 786 787 787 788 787 786 787 788 786 786 785 785 785 786 785 782 778 777 776 774 772 769 766 764 761 759 757 756 757 760 760 760 761 762 764 764 764